| time (UTC) | temp F | wind direction | speed MPH | gust MPH | rain 1hr in | rain 24hr in | rain mn in | humidity % | barometer mb |
| 20260504185316 | 71 | 247 | 4.0 | 7.0 | 0.00 | 0.00 | 0.00 | 47 | 1007.6 |
| 20260504184355 | 71 | 225 | 3.0 | 8.0 | 0.00 | 0.00 | 0.00 | 43 | 1007.5 |
| 20260504183316 | 72 | 315 | 3.0 | 6.0 | 0.00 | 0.00 | 0.00 | 45 | 1007.5 |
| 20260504182315 | 70 | 202 | 4.0 | 5.0 | 0.00 | 0.00 | 0.00 | 43 | 1007.7 |
| 20260504181316 | 70 | 247 | 5.0 | 7.0 | 0.00 | 0.00 | 0.00 | 45 | 1007.7 |
| 20260504180355 | 69 | 202 | 7.0 | 16.0 | 0.00 | 0.00 | 0.00 | 44 | 1007.8 |
| 20260504175316 | 69 | 202 | 5.0 | 7.0 | 0.00 | 0.00 | 0.00 | 44 | 1008.0 |
| 20260504174315 | 70 | 202 | 4.0 | 7.0 | 0.00 | 0.00 | 0.00 | 47 | 1008.1 |
| 20260504173335 | 69 | 202 | 6.0 | 11.0 | 0.00 | 0.00 | 0.00 | 44 | 1008.0 |
| 20260504172315 | 69 | 270 | 8.0 | 14.0 | 0.00 | 0.00 | 0.00 | 46 | 1008.3 |
| 20260504171336 | 69 | 247 | 8.0 | 13.0 | 0.00 | 0.00 | 0.00 | 47 | 1008.3 |
| 20260504170315 | 69 | 247 | 6.0 | 13.0 | 0.00 | 0.00 | 0.00 | 48 | 1008.4 |
| 20260504160316 | 66 | 202 | 5.0 | 9.0 | 0.00 | 0.00 | 0.00 | 45 | 1009.2 |
| 20260504150336 | 63 | 247 | 9.0 | 14.0 | 0.00 | 0.00 | 0.00 | 49 | 1010.0 |
| 20260504141335 | 59 | 225 | 3.0 | 5.0 | 0.00 | 0.00 | 0.00 | 53 | 1010.6 |
| 20260504140315 | 58 | 225 | 7.0 | 11.0 | 0.00 | 0.00 | 0.00 | 52 | 1010.7 |
| 20260504130315 | 53 | 225 | 1.0 | 4.0 | 0.00 | 0.00 | 0.00 | 60 | 1011.2 |
| 20260504110337 | 36 | 0.0 | 0.0 | 0.00 | 0.00 | 0.00 | 92 | 1011.2 | |
| 20260504100317 | 33 | 0.0 | 0.0 | 0.00 | 0.00 | 0.00 | 92 | 1010.9 | |
| 20260504081317 | 35 | 0.0 | 0.0 | 0.00 | 0.00 | 0.00 | 90 | 1011.1 | |
| 20260504080357 | 35 | 0.0 | 0.0 | 0.00 | 0.00 | 0.00 | 90 | 1011.1 | |
| 20260504070337 | 36 | 0.0 | 0.0 | 0.00 | 0.00 | 0.00 | 89 | 1011.1 | |
| 20260504050317 | 40 | 0.0 | 0.0 | 0.00 | 0.00 | 0.00 | 85 | 1011.3 | |
| 20260504045316 | 40 | 0.0 | 0.0 | 0.00 | 0.00 | 0.00 | 84 | 1011.4 | |
| 20260504044357 | 41 | 0.0 | 0.0 | 0.00 | 0.00 | 0.00 | 83 | 1011.3 | |
| 20260504043316 | 42 | 0.0 | 0.0 | 0.00 | 0.00 | 0.00 | 82 | 1011.3 | |
| 20260504042316 | 42 | 0.0 | 0.0 | 0.00 | 0.00 | 0.00 | 81 | 1011.3 | |
| 20260504041316 | 43 | 0.0 | 0.0 | 0.00 | 0.00 | 0.00 | 81 | 1011.3 | |
| 20260504040316 | 44 | 0.0 | 0.0 | 0.00 | 0.00 | 0.00 | 80 | 1011.3 | |
| 20260504035337 | 45 | 0.0 | 0.0 | 0.00 | 0.00 | 0.00 | 79 | 1011.3 | |
| 20260504034316 | 46 | 0.0 | 0.0 | 0.00 | 0.00 | 0.00 | 78 | 1011.3 | |
| 20260504033316 | 46 | 0.0 | 0.0 | 0.00 | 0.00 | 0.00 | 78 | 1011.4 | |
| 20260504032437 | 46 | 0.0 | 0.0 | 0.00 | 0.00 | 0.00 | 78 | 1011.4 | |
| 20260504031316 | 47 | 0.0 | 0.0 | 0.00 | 0.00 | 0.00 | 77 | 1011.5 | |
| 20260504030316 | 47 | 0.0 | 0.0 | 0.00 | 0.00 | 0.00 | 76 | 1011.5 | |
| 20260504025336 | 48 | 0.0 | 0.0 | 0.00 | 0.00 | 0.00 | 75 | 1011.4 | |
| 20260504024317 | 48 | 0.0 | 0.0 | 0.00 | 0.00 | 0.00 | 75 | 1011.5 | |
| 20260504023336 | 48 | 0.0 | 0.0 | 0.00 | 0.00 | 0.00 | 76 | 1011.7 | |
| 20260504022336 | 48 | 0.0 | 0.0 | 0.00 | 0.00 | 0.00 | 75 | 1011.7 | |
| 20260504021316 | 48 | 225 | 1.0 | 1.0 | 0.00 | 0.00 | 0.00 | 74 | 1011.7 |
| 20260504020336 | 48 | 0.0 | 0.0 | 0.00 | 0.00 | 0.00 | 73 | 1011.7 | |
| 20260504015316 | 48 | 0.0 | 1.0 | 0.00 | 0.00 | 0.00 | 73 | 1011.7 | |
| 20260504014436 | 48 | 0.0 | 0.0 | 0.00 | 0.00 | 0.00 | 73 | 1011.6 | |
| 20260504013317 | 48 | 0.0 | 0.0 | 0.00 | 0.00 | 0.00 | 73 | 1011.5 | |
| 20260504012316 | 48 | 0.0 | 0.0 | 0.00 | 0.00 | 0.00 | 72 | 1011.4 | |
| 20260504011356 | 49 | 0.0 | 0.0 | 0.00 | 0.00 | 0.00 | 71 | 1011.4 | |
| 20260504010316 | 49 | 0.0 | 0.0 | 0.00 | 0.00 | 0.00 | 69 | 1011.3 | |
| 20260504005316 | 50 | 0.0 | 0.0 | 0.00 | 0.00 | 0.00 | 70 | 1011.3 | |
| 20260504004317 | 50 | 0.0 | 0.0 | 0.00 | 0.00 | 0.00 | 69 | 1011.3 | |
| 20260504003336 | 51 | 0.0 | 0.0 | 0.00 | 0.00 | 0.00 | 67 | 1011.1 | |
| 20260504002316 | 52 | 0.0 | 0.0 | 0.00 | 0.00 | 0.00 | 61 | 1011.0 | |
| 20260504001317 | 52 | 0.0 | 0.0 | 0.00 | 0.00 | 0.00 | 63 | 1011.0 | |
| 20260504000316 | 52 | 0.0 | 0.0 | 0.00 | 0.00 | 0.00 | 64 | 1010.7 | |
| 20260503235336 | 54 | 0.0 | 0.0 | 0.00 | 0.00 | 0.00 | 56 | 1010.6 | |
| 20260503234337 | 55 | 0.0 | 0.0 | 0.00 | 0.00 | 0.00 | 52 | 1010.6 | |
| 20260503233357 | 55 | 247 | 1.0 | 2.0 | 0.00 | 0.00 | 0.00 | 48 | 1010.4 |
| 20260503232416 | 56 | 247 | 3.0 | 4.0 | 0.00 | 0.00 | 0.00 | 46 | 1010.4 |
| 20260503231337 | 56 | 247 | 3.0 | 4.0 | 0.00 | 0.00 | 0.00 | 46 | 1010.3 |
| 20260503230336 | 56 | 247 | 3.0 | 4.0 | 0.00 | 0.00 | 0.00 | 47 | 1010.4 |
| 20260503225316 | 56 | 247 | 6.0 | 10.0 | 0.00 | 0.00 | 0.00 | 46 | 1010.4 |
| 20260503224316 | 56 | 270 | 3.0 | 4.0 | 0.00 | 0.00 | 0.00 | 47 | 1010.5 |
| 20260503223356 | 56 | 247 | 3.0 | 8.0 | 0.00 | 0.00 | 0.00 | 46 | 1010.5 |
| 20260503222336 | 57 | 292 | 4.0 | 7.0 | 0.00 | 0.00 | 0.00 | 45 | 1010.6 |
| 20260503221317 | 57 | 225 | 3.0 | 4.0 | 0.00 | 0.00 | 0.00 | 45 | 1010.6 |
| 20260503220356 | 57 | 247 | 5.0 | 9.0 | 0.00 | 0.00 | 0.00 | 44 | 1010.6 |
| 20260503215336 | 58 | 292 | 5.0 | 10.0 | 0.00 | 0.00 | 0.00 | 44 | 1010.7 |
| 20260503214357 | 57 | 225 | 2.0 | 3.0 | 0.00 | 0.00 | 0.00 | 45 | 1010.8 |
| 20260503213336 | 56 | 315 | 3.0 | 7.0 | 0.00 | 0.00 | 0.00 | 47 | 1010.6 |
| 20260503212336 | 56 | 315 | 4.0 | 5.0 | 0.00 | 0.00 | 0.00 | 46 | 1010.6 |
| 20260503211336 | 55 | 337 | 3.0 | 5.0 | 0.00 | 0.00 | 0.00 | 48 | 1010.7 |
| 20260503210316 | 55 | 247 | 2.0 | 3.0 | 0.00 | 0.00 | 0.00 | 49 | 1010.8 |
| 20260503205316 | 55 | 292 | 1.0 | 2.0 | 0.00 | 0.00 | 0.00 | 47 | 1010.9 |
| 20260503204315 | 55 | 292 | 2.0 | 3.0 | 0.00 | 0.00 | 0.00 | 50 | 1011.0 |
| 20260503203336 | 54 | 292 | 3.0 | 6.0 | 0.00 | 0.00 | 0.00 | 48 | 1011.1 |
| 20260503202335 | 54 | 315 | 4.0 | 6.0 | 0.00 | 0.00 | 0.00 | 48 | 1011.1 |
| 20260503201315 | 54 | 135 | 2.0 | 4.0 | 0.00 | 0.00 | 0.00 | 49 | 1011.2 |
| 20260503200357 | 55 | 225 | 9.0 | 14.0 | 0.00 | 0.00 | 0.00 | 47 | 1011.5 |
| 20260503195315 | 55 | 315 | 5.0 | 9.0 | 0.00 | 0.00 | 0.00 | 45 | 1011.2 |
| 20260503194315 | 56 | 292 | 3.0 | 5.0 | 0.00 | 0.00 | 0.00 | 44 | 1011.1 |
| 20260503193336 | 55 | 292 | 2.0 | 5.0 | 0.00 | 0.00 | 0.00 | 46 | 1011.2 |
| 20260503192416 | 55 | 0 | 3.0 | 6.0 | 0.00 | 0.00 | 0.00 | 41 | 1011.3 |
| 20260503191335 | 55 | 315 | 3.0 | 5.0 | 0.00 | 0.00 | 0.00 | 42 | 1011.3 |
| 20260503190416 | 56 | 292 | 5.0 | 9.0 | 0.00 | 0.00 | 0.00 | 41 | 1011.4 |